Find Starlink 5298

NORAD ID: 55281 Int'l Des: 2023-010 Owner: SPXS Country: US Constellation: starlink operational
LEOCIRCULAR

リアルタイム位置

3D地球を読み込み中...

Starlink 5298について

説明を読み込み中...

次回通過

Passes for default location (London). Set your location on the main map for personalized predictions.

高度履歴

Loading altitude history...

軌道要素

1 55281U 23010N 26127.08640081 -.00000771 00000-0 -56828-4 0 9992
2 55281 69.9996 257.1940 0003051 271.4840 88.5970 14.98329987181528
Epoch: May 7, 2026 • Age: 8 hours

現在のステータス

高度 585.6 km
速度 7.57 km/s
衛星直下点 69.82°N, 26.48°W
打ち上げ日 Jan 19, 2023
運用期間 3.2 years
タイプ internet

技術仕様

分類 Payload
質量 305.00 kg
乾燥質量 290.00 kg
総質量 305.00 kg
長さ 0.20 m
直径 2.80 m
スパン 9.00 m
形状 Box + pan
製造者 SPXS
バスタイプ Starlink
フェーズステータス In Orbit
所有者/国 SPXS/US

Most Searched